Time,TemperatureF,DewpointF,PressureIn,WindDirection,WindDirectionDegrees,WindSpeedMPH,WindSpeedGustMPH,Humidity,HourlyPrecipIn,Conditions,Clouds,dailyrainin,SoftwareType,DateUTC
2013-06-07 00:03:00,78.0,-99.9,29.80,West,269,14.0,21.0,-999,-99.99,,,-99.99,,2013-06-07 04:03:00,
2013-06-07 00:13:00,78.0,-99.9,29.81,West,268,15.0,20.0,-999,-99.99,,,-99.99,,2013-06-07 04:13:00,
2013-06-07 00:23:00,78.0,-99.9,29.80,West,267,13.0,21.0,-999,-99.99,,,-99.99,,2013-06-07 04:23:00,
2013-06-07 00:33:00,78.0,-99.9,29.80,West,269,12.0,17.0,-999,-99.99,,,-99.99,,2013-06-07 04:33:00,
2013-06-07 00:42:00,78.0,-99.9,29.80,West,267,11.0,17.0,-999,-99.99,,,-99.99,,2013-06-07 04:42:00,
2013-06-07 00:54:00,78.0,-99.9,29.80,West,268,14.0,17.0,-999,-99.99,,,-99.99,,2013-06-07 04:54:00,
2013-06-07 01:03:00,78.0,-99.9,29.80,West,266,13.0,19.0,-999,-99.99,,,-99.99,,2013-06-07 05:03:00,
2013-06-07 01:12:00,78.0,-99.9,29.80,West,266,13.0,19.0,-999,-99.99,,,-99.99,,2013-06-07 05:12:00,
2013-06-07 01:23:00,78.0,-99.9,29.80,West,270,15.0,20.0,-999,-99.99,,,-99.99,,2013-06-07 05:23:00,
2013-06-07 01:32:00,78.0,-99.9,29.80,West,272,19.0,21.0,-999,-99.99,,,-99.99,,2013-06-07 05:32:00,
2013-06-07 01:43:00,78.0,-99.9,29.80,West,273,17.0,21.0,-999,-99.99,,,-99.99,,2013-06-07 05:43:00,
2013-06-07 01:52:00,78.0,-99.9,29.80,West,277,17.0,20.0,-999,-99.99,,,-99.99,,2013-06-07 05:52:00,
2013-06-07 02:02:00,78.0,-99.9,29.80,West,279,17.0,20.0,-999,-99.99,,,-99.99,,2013-06-07 06:02:00,
2013-06-07 02:13:00,78.0,-99.9,29.80,West,275,17.0,19.0,-999,-99.99,,,-99.99,,2013-06-07 06:13:00,
2013-06-07 02:23:00,78.0,-99.9,29.80,West,279,17.0,19.0,-999,-99.99,,,-99.99,,2013-06-07 06:23:00,
2013-06-07 02:32:00,78.0,-99.9,29.80,West,272,16.0,19.0,-999,-99.99,,,-99.99,,2013-06-07 06:32:00,
2013-06-07 02:43:00,78.0,-99.9,29.80,West,274,17.0,19.0,-999,-99.99,,,-99.99,,2013-06-07 06:43:00,
2013-06-07 02:52:00,78.0,-99.9,29.79,West,272,17.0,19.0,-999,-99.99,,,-99.99,,2013-06-07 06:52:00,
2013-06-07 03:02:00,78.0,-99.9,29.79,West,276,17.0,20.0,-999,-99.99,,,-99.99,,2013-06-07 07:02:00,
2013-06-07 03:12:00,78.0,-99.9,29.79,West,275,17.0,20.0,-999,-99.99,,,-99.99,,2013-06-07 07:12:00,
2013-06-07 03:22:00,78.0,-99.9,29.78,West,271,14.0,17.0,-999,-99.99,,,-99.99,,2013-06-07 07:22:00,
2013-06-07 03:32:00,78.0,-99.9,29.78,West,268,11.0,17.0,-999,-99.99,,,-99.99,,2013-06-07 07:32:00,
2013-06-07 03:42:00,78.0,-99.9,29.79,West,265,11.0,17.0,-999,-99.99,,,-99.99,,2013-06-07 07:42:00,
2013-06-07 03:52:00,78.0,-99.9,29.79,West,268,11.0,14.0,-999,-99.99,,,-99.99,,2013-06-07 07:52:00,
2013-06-07 04:02:00,78.0,-99.9,29.79,West,269,11.0,16.0,-999,-99.99,,,-99.99,,2013-06-07 08:02:00,
2013-06-07 04:12:00,78.0,-99.9,29.79,West,273,13.0,15.0,-999,-99.99,,,-99.99,,2013-06-07 08:12:00,
2013-06-07 04:22:00,78.0,-99.9,29.78,West,269,10.0,15.0,-999,-99.99,,,-99.99,,2013-06-07 08:22:00,
2013-06-07 04:32:00,78.0,-99.9,29.78,West,269,9.0,15.0,-999,-99.99,,,-99.99,,2013-06-07 08:32:00,
2013-06-07 04:43:00,78.0,-99.9,29.78,West,271,11.0,15.0,-999,-99.99,,,-99.99,,2013-06-07 08:43:00,
2013-06-07 04:52:00,78.0,-99.9,29.78,West,269,12.0,15.0,-999,-99.99,,,-99.99,,2013-06-07 08:52:00,
2013-06-07 05:02:00,78.0,-99.9,29.79,West,269,9.0,14.0,-999,-99.99,,,-99.99,,2013-06-07 09:02:00,
2013-06-07 05:12:00,78.0,-99.9,29.79,West,268,10.0,13.0,-999,-99.99,,,-99.99,,2013-06-07 09:12:00,
2013-06-07 05:22:00,78.0,-99.9,29.79,West,270,9.0,12.0,-999,-99.99,,,-99.99,,2013-06-07 09:22:00,
2013-06-07 05:33:00,78.0,-99.9,29.80,West,268,10.0,12.0,-999,-99.99,,,-99.99,,2013-06-07 09:33:00,
2013-06-07 05:43:00,78.0,-99.9,29.80,WSW,253,11.0,14.0,-999,-99.99,,,-99.99,,2013-06-07 09:43:00,
2013-06-07 05:53:00,78.0,-99.9,29.80,WSW,251,11.0,14.0,-999,-99.99,,,-99.99,,2013-06-07 09:53:00,
2013-06-07 06:03:00,78.0,-99.9,29.81,West,260,9.0,13.0,-999,-99.99,,,-99.99,,2013-06-07 10:03:00,
2013-06-07 06:13:00,78.0,-99.9,29.81,West,259,11.0,13.0,-999,-99.99,,,-99.99,,2013-06-07 10:13:00,
2013-06-07 06:23:00,78.0,-99.9,29.82,WSW,255,10.0,13.0,-999,-99.99,,,-99.99,,2013-06-07 10:23:00,
2013-06-07 06:33:00,78.0,-99.9,29.83,WSW,251,11.0,13.0,-999,-99.99,,,-99.99,,2013-06-07 10:33:00,
2013-06-07 06:43:00,78.0,-99.9,29.83,WSW,244,12.0,13.0,-999,-99.99,,,-99.99,,2013-06-07 10:43:00,
2013-06-07 06:53:00,78.0,-99.9,29.83,WSW,255,11.0,12.0,-999,-99.99,,,-99.99,,2013-06-07 10:53:00,
2013-06-07 07:02:00,78.0,-99.9,29.84,WSW,242,11.0,13.0,-999,-99.99,,,-99.99,,2013-06-07 11:02:00,
2013-06-07 07:12:00,78.0,-99.9,29.84,WSW,243,12.0,14.0,-999,-99.99,,,-99.99,,2013-06-07 11:12:00,
2013-06-07 07:22:00,78.0,-99.9,29.85,WSW,241,11.0,13.0,-999,-99.99,,,-99.99,,2013-06-07 11:22:00,
2013-06-07 07:32:00,78.0,-99.9,29.85,WSW,240,10.0,13.0,-999,-99.99,,,-99.99,,2013-06-07 11:32:00,
2013-06-07 07:42:00,78.0,-99.9,29.85,WSW,250,11.0,12.0,-999,-99.99,,,-99.99,,2013-06-07 11:42:00,
2013-06-07 07:53:00,78.0,-99.9,29.85,WSW,241,11.0,13.0,-999,-99.99,,,-99.99,,2013-06-07 11:53:00,
2013-06-07 08:02:00,78.0,-99.9,29.86,WSW,241,11.0,13.0,-999,-99.99,,,-99.99,,2013-06-07 12:02:00,
2013-06-07 08:13:00,78.0,-99.9,29.86,WSW,244,12.0,13.0,-999,-99.99,,,-99.99,,2013-06-07 12:13:00,
2013-06-07 08:22:00,78.0,-99.9,29.87,SW,235,11.0,12.0,-999,-99.99,,,-99.99,,2013-06-07 12:22:00,
2013-06-07 08:33:00,78.0,-99.9,29.87,SW,234,11.0,13.0,-999,-99.99,,,-99.99,,2013-06-07 12:33:00,
2013-06-07 08:42:00,78.0,-99.9,29.87,SW,225,11.0,12.0,-999,-99.99,,,-99.99,,2013-06-07 12:42:00,
2013-06-07 08:52:00,78.0,-99.9,29.87,SW,235,10.0,12.0,-999,-99.99,,,-99.99,,2013-06-07 12:52:00,
2013-06-07 09:02:00,78.0,-99.9,29.87,WSW,238,10.0,11.0,-999,-99.99,,,-99.99,,2013-06-07 13:02:00,
2013-06-07 09:13:00,78.0,-99.9,29.88,WSW,237,11.0,12.0,-999,-99.99,,,-99.99,,2013-06-07 13:13:00,
2013-06-07 09:22:00,78.0,-99.9,29.88,SW,229,11.0,13.0,-999,-99.99,,,-99.99,,2013-06-07 13:22:00,
2013-06-07 09:33:00,78.0,-99.9,29.89,SW,223,12.0,13.0,-999,-99.99,,,-99.99,,2013-06-07 13:33:00,
2013-06-07 09:43:00,78.0,-99.9,29.89,SW,222,13.0,14.0,-999,-99.99,,,-99.99,,2013-06-07 13:43:00,
2013-06-07 09:52:00,78.0,-99.9,29.89,SW,228,12.0,13.0,-999,-99.99,,,-99.99,,2013-06-07 13:52:00,
2013-06-07 10:03:00,78.0,-99.9,29.90,SW,229,12.0,14.0,-999,-99.99,,,-99.99,,2013-06-07 14:03:00,
2013-06-07 10:13:00,79.0,-99.9,29.90,SW,223,13.0,14.0,-999,-99.99,,,-99.99,,2013-06-07 14:13:00,
2013-06-07 10:23:00,78.0,-99.9,29.91,SW,225,14.0,15.0,-999,-99.99,,,-99.99,,2013-06-07 14:23:00,
2013-06-07 10:33:00,78.0,-99.9,29.91,SW,224,14.0,15.0,-999,-99.99,,,-99.99,,2013-06-07 14:33:00,
2013-06-07 10:42:00,78.0,-99.9,29.91,SW,224,13.0,15.0,-999,-99.99,,,-99.99,,2013-06-07 14:42:00,
2013-06-07 10:52:00,78.0,-99.9,29.92,SW,219,14.0,15.0,-999,-99.99,,,-99.99,,2013-06-07 14:52:00,
2013-06-07 11:03:00,79.0,-99.9,29.92,SW,219,13.0,15.0,-999,-99.99,,,-99.99,,2013-06-07 15:03:00,
2013-06-07 11:13:00,78.0,-99.9,29.92,SW,221,13.0,15.0,-999,-99.99,,,-99.99,,2013-06-07 15:13:00,
2013-06-07 11:23:00,79.0,-99.9,29.92,SW,226,14.0,16.0,-999,-99.99,,,-99.99,,2013-06-07 15:23:00,
2013-06-07 11:33:00,79.0,-99.9,29.91,SW,224,13.0,16.0,-999,-99.99,,,-99.99,,2013-06-07 15:33:00,
2013-06-07 11:43:00,79.0,-99.9,29.92,SW,227,12.0,15.0,-999,-99.99,,,-99.99,,2013-06-07 15:43:00,
2013-06-07 11:53:00,79.0,-99.9,29.93,SW,225,15.0,15.0,-999,-99.99,,,-99.99,,2013-06-07 15:53:00,
2013-06-07 12:03:00,79.0,-99.9,29.93,SW,223,13.0,15.0,-999,-99.99,,,-99.99,,2013-06-07 16:03:00,
2013-06-07 12:13:00,79.0,-99.9,29.93,SW,227,12.0,15.0,-999,-99.99,,,-99.99,,2013-06-07 16:13:00,
2013-06-07 12:22:00,79.0,-99.9,29.93,SW,231,13.0,15.0,-999,-99.99,,,-99.99,,2013-06-07 16:22:00,
2013-06-07 12:33:00,79.0,-99.9,29.94,SW,222,13.0,15.0,-999,-99.99,,,-99.99,,2013-06-07 16:33:00,
2013-06-07 12:43:00,79.0,-99.9,29.94,SW,221,13.0,15.0,-999,-99.99,,,-99.99,,2013-06-07 16:43:00,
2013-06-07 12:53:00,79.0,-99.9,29.94,SW,227,14.0,15.0,-999,-99.99,,,-99.99,,2013-06-07 16:53:00,
2013-06-07 13:03:00,79.0,-99.9,29.93,SW,229,14.0,16.0,-999,-99.99,,,-99.99,,2013-06-07 17:03:00,
2013-06-07 13:13:00,79.0,-99.9,29.93,SW,229,14.0,15.0,-999,-99.99,,,-99.99,,2013-06-07 17:13:00,
2013-06-07 13:23:00,79.0,-99.9,29.93,SW,233,12.0,15.0,-999,-99.99,,,-99.99,,2013-06-07 17:23:00,
2013-06-07 13:32:00,79.0,-99.9,29.93,SW,235,12.0,14.0,-999,-99.99,,,-99.99,,2013-06-07 17:32:00,
2013-06-07 13:43:00,79.0,-99.9,29.93,SW,236,12.0,13.0,-999,-99.99,,,-99.99,,2013-06-07 17:43:00,
2013-06-07 13:53:00,79.0,-99.9,29.92,SW,231,13.0,14.0,-999,-99.99,,,-99.99,,2013-06-07 17:53:00,
2013-06-07 14:11:00,79.0,-99.9,29.92,SW,232,11.0,13.0,-999,-99.99,,,-99.99,,2013-06-07 18:11:00,
2013-06-07 14:38:00,79.0,-99.9,29.92,SW,230,11.0,12.0,-999,-99.99,,,-99.99,,2013-06-07 18:38:00,
2013-06-07 15:02:00,79.0,-99.9,29.92,SW,227,10.0,12.0,-999,-99.99,,,-99.99,,2013-06-07 19:02:00,
2013-06-07 15:09:00,79.0,-99.9,29.91,SW,230,11.0,12.0,-999,-99.99,,,-99.99,,2013-06-07 19:09:00,
2013-06-07 15:17:00,79.0,-99.9,29.91,WSW,245,11.0,12.0,-999,-99.99,,,-99.99,,2013-06-07 19:17:00,
2013-06-07 15:41:00,79.0,-99.9,29.91,WSW,243,10.0,13.0,-999,-99.99,,,-99.99,,2013-06-07 19:41:00,
2013-06-07 15:52:00,79.0,-99.9,29.91,WSW,244,11.0,12.0,-999,-99.99,,,-99.99,,2013-06-07 19:52:00,
2013-06-07 15:59:00,79.0,-99.9,29.91,WSW,247,11.0,13.0,-999,-99.99,,,-99.99,,2013-06-07 19:59:00,
2013-06-07 16:09:00,80.0,-99.9,29.91,SW,234,12.0,14.0,-999,-99.99,,,-99.99,,2013-06-07 20:09:00,
2013-06-07 16:18:00,80.0,-99.9,29.91,WSW,239,12.0,14.0,-999,-99.99,,,-99.99,,2013-06-07 20:18:00,
2013-06-07 16:28:00,79.0,-99.9,29.91,SW,236,11.0,14.0,-999,-99.99,,,-99.99,,2013-06-07 20:28:00,
2013-06-07 16:43:00,80.0,-99.9,29.91,WSW,241,11.0,14.0,-999,-99.99,,,-99.99,,2013-06-07 20:43:00,
2013-06-07 16:52:00,79.0,-99.9,29.91,SW,235,13.0,14.0,-999,-99.99,,,-99.99,,2013-06-07 20:52:00,
2013-06-07 16:59:00,80.0,-99.9,29.91,SW,234,12.0,13.0,-999,-99.99,,,-99.99,,2013-06-07 20:59:00,
2013-06-07 17:08:00,80.0,-99.9,29.91,WSW,239,13.0,15.0,-999,-99.99,,,-99.99,,2013-06-07 21:08:00,
2013-06-07 17:20:00,80.0,-99.9,29.91,WSW,237,12.0,14.0,-999,-99.99,,,-99.99,,2013-06-07 21:20:00,
2013-06-07 17:30:00,80.0,-99.9,29.91,WSW,239,12.0,14.0,-999,-99.99,,,-99.99,,2013-06-07 21:30:00,
2013-06-07 17:43:00,80.0,-99.9,29.91,WSW,243,13.0,14.0,-999,-99.99,,,-99.99,,2013-06-07 21:43:00,
2013-06-07 18:04:00,80.0,-99.9,29.91,WSW,250,11.0,13.0,-999,-99.99,,,-99.99,,2013-06-07 22:04:00,
2013-06-07 18:09:00,80.0,-99.9,29.91,WSW,243,12.0,13.0,-999,-99.99,,,-99.99,,2013-06-07 22:09:00,
2013-06-07 18:24:00,80.0,-99.9,29.91,WSW,250,13.0,14.0,-999,-99.99,,,-99.99,,2013-06-07 22:24:00,
2013-06-07 18:30:00,80.0,-99.9,29.91,WSW,238,11.0,12.0,-999,-99.99,,,-99.99,,2013-06-07 22:30:00,
2013-06-07 18:39:00,80.0,-99.9,29.91,WSW,237,12.0,14.0,-999,-99.99,,,-99.99,,2013-06-07 22:39:00,
2013-06-07 18:49:00,80.0,-99.9,29.91,WSW,239,12.0,14.0,-999,-99.99,,,-99.99,,2013-06-07 22:49:00,
2013-06-07 19:00:00,80.0,-99.9,29.90,SW,236,11.0,13.0,-999,-99.99,,,-99.99,,2013-06-07 23:00:00,
2013-06-07 19:10:00,80.0,-99.9,29.91,WSW,243,11.0,12.0,-999,-99.99,,,-99.99,,2013-06-07 23:10:00,
2013-06-07 19:33:00,80.0,-99.9,29.91,SW,223,11.0,14.0,-999,-99.99,,,-99.99,,2013-06-07 23:33:00,
2013-06-07 20:14:00,80.0,-99.9,29.91,SW,224,10.0,11.0,-999,-99.99,,,-99.99,,2013-06-08 00:14:00,
2013-06-07 20:19:00,80.0,-99.9,29.91,SSW,212,9.0,10.0,-999,-99.99,,,-99.99,,2013-06-08 00:19:00,
2013-06-07 20:32:00,80.0,-99.9,29.91,SSW,211,8.0,9.0,-999,-99.99,,,-99.99,,2013-06-08 00:32:00,
2013-06-07 20:49:00,80.0,-99.9,29.91,SSW,206,12.0,14.0,-999,-99.99,,,-99.99,,2013-06-08 00:49:00,
2013-06-07 21:08:00,80.0,-99.9,29.91,SSW,209,9.0,11.0,-999,-99.99,,,-99.99,,2013-06-08 01:08:00,
2013-06-07 21:21:00,79.0,-99.9,29.91,SSW,207,9.0,10.0,-999,-99.99,,,-99.99,,2013-06-08 01:21:00,
2013-06-07 21:40:00,79.0,-99.9,29.92,SW,217,8.0,9.0,-999,-99.99,,,-99.99,,2013-06-08 01:40:00,
2013-06-07 21:50:00,79.0,-99.9,29.92,SSW,203,8.0,9.0,-999,-99.99,,,-99.99,,2013-06-08 01:50:00,
2013-06-07 22:04:00,79.0,-99.9,29.93,SSW,196,8.0,9.0,-999,-99.99,,,-99.99,,2013-06-08 02:04:00,
2013-06-07 22:13:00,79.0,-99.9,29.93,SSW,196,8.0,9.0,-999,-99.99,,,-99.99,,2013-06-08 02:13:00,
2013-06-07 22:31:00,79.0,-99.9,29.93,SSW,197,9.0,11.0,-999,-99.99,,,-99.99,,2013-06-08 02:31:00,
2013-06-07 22:37:00,79.0,-99.9,29.94,South,179,6.0,9.0,-999,-99.99,,,-99.99,,2013-06-08 02:37:00,
2013-06-07 22:49:00,79.0,-99.9,29.94,South,185,5.0,7.0,-999,-99.99,,,-99.99,,2013-06-08 02:49:00,
2013-06-07 23:00:00,79.0,-99.9,29.94,South,182,4.0,6.0,-999,-99.99,,,-99.99,,2013-06-08 03:00:00,
2013-06-07 23:13:00,79.0,-99.9,29.95,South,189,5.0,6.0,-999,-99.99,,,-99.99,,2013-06-08 03:13:00,
2013-06-07 23:19:00,79.0,-99.9,29.95,SSW,192,9.0,11.0,-999,-99.99,,,-99.99,,2013-06-08 03:19:00,
2013-06-07 23:27:00,80.0,-99.9,29.95,SSW,192,9.0,11.0,-999,-99.99,,,-99.99,,2013-06-08 03:27:00,
2013-06-07 23:40:00,79.0,-99.9,29.95,South,183,9.0,11.0,-999,-99.99,,,-99.99,,2013-06-08 03:40:00,
2013-06-07 23:54:00,79.0,-99.9,29.95,South,188,11.0,12.0,-999,-99.99,,,-99.99,,2013-06-08 03:54:00,